Cape Byron Observation History
Time Wind Speed Temp Pressure Rel. Hum Rain
18/03:30am SW 18-25 kts 14.5°c 1016.9 hPa n/a 2.2mm
18/03:00am WSW 16-24 kts 14.5°c 1017.0 hPa n/a 2.2mm
18/02:30am SW 19-28 kts 14.6°c 1017.2 hPa n/a 2.2mm
18/02:23am SW 18-28 kts 14.7°c 1017.3 hPa n/a 2.2mm
18/02:00am SW 18-23 kts 14.6°c 1017.5 hPa n/a 2.2mm
18/01:30am WSW 19-24 kts 14.4°c 1017.7 hPa n/a 2.2mm
18/01:00am WSW 18-23 kts 14.2°c 1018.0 hPa n/a 2.2mm
18/12:30am WSW 16-22 kts 14.1°c 1018.4 hPa n/a 2.2mm
18/12:00am WSW 15-20 kts 14.0°c 1018.4 hPa n/a 2.2mm
Time Wind Speed Temp Pressure Rel. Hum Rain
17/11:30pm WSW 17-25 kts 14.0°c 1018.6 hPa n/a 2.2mm
17/11:00pm WSW 18-23 kts 13.8°c 1018.8 hPa n/a 2.2mm
17/10:30pm WSW 18-25 kts 13.9°c 1019.2 hPa n/a 2.0mm
17/10:00pm WSW 17-22 kts 14.1°c 1019.2 hPa n/a 2.0mm
17/09:30pm SW 15-21 kts 14.3°c 1019.2 hPa n/a 2.0mm
17/09:00pm SW 17-23 kts 14.7°c 1019.3 hPa n/a 1.8mm
17/08:30pm SW 17-24 kts 14.5°c 1019.4 hPa n/a 1.6mm
17/08:00pm SW 18-23 kts 14.1°c 1019.5 hPa n/a 1.2mm
17/07:30pm SW 18-26 kts 14.2°c 1019.4 hPa n/a 1.0mm
17/07:00pm SW 25-32 kts 15.1°c 1019.1 hPa n/a 0.4mm
17/06:30pm SW 19-25 kts 16.2°c 1018.4 hPa n/a 0.2mm
17/06:00pm SSW 19-28 kts 16.9°c 1018.3 hPa n/a 0.2mm
17/05:30pm SSW 19-25 kts 17.9°c 1017.7 hPa n/a 0.2mm
17/05:00pm SW 16-21 kts 18.0°c 1017.6 hPa n/a 0.2mm
17/04:30pm SW 13-17 kts 18.3°c 1017.6 hPa n/a 0.2mm
17/04:00pm SW 9-13 kts 18.8°c 1017.6 hPa n/a 0.0mm
17/03:30pm SW 9-11 kts 19.0°c 1017.3 hPa n/a 0.0mm
17/03:00pm SW 12-14 kts 19.2°c 1017.1 hPa n/a 0.0mm
17/02:30pm SW 10-14 kts 19.7°c 1016.8 hPa n/a 0.0mm
17/02:00pm SW 10-15 kts 20.0°c 1017.1 hPa n/a 0.0mm
17/01:30pm SW 10-13 kts 20.0°c 1017.2 hPa n/a 0.0mm
17/01:00pm SW 10-13 kts 19.9°c 1017.3 hPa n/a 0.0mm
17/12:30pm SW 12-17 kts 19.9°c 1017.5 hPa n/a 0.0mm
17/12:00pm SW 12-16 kts 20.0°c 1018.0 hPa n/a 0.0mm
17/11:30am SW 11-14 kts 20.6°c 1018.7 hPa n/a 0.0mm
17/11:00am SW 11-15 kts 20.5°c 1018.8 hPa n/a 0.0mm
17/10:30am SW 11-15 kts 19.8°c 1019.4 hPa n/a 0.0mm
17/10:00am SW 12-16 kts 19.1°c 1019.5 hPa n/a 0.0mm
17/09:30am WSW 13-17 kts 19.2°c 1019.8 hPa n/a 0.0mm
17/09:00am WSW 13-19 kts 19.1°c 1019.8 hPa n/a 0.0mm
17/08:30am WSW 14-19 kts 19.0°c 1019.7 hPa n/a 0.0mm
17/08:00am WSW 14-19 kts 19.0°c 1019.6 hPa n/a 0.0mm
17/07:30am WSW 13-17 kts 18.7°c 1019.3 hPa n/a 0.0mm
17/07:00am WSW 13-17 kts 18.4°c 1019.4 hPa n/a 0.0mm
17/06:30am WSW 13-16 kts 18.3°c 1019.0 hPa n/a 0.0mm
17/06:00am WSW 13-17 kts 18.2°c 1018.9 hPa n/a 0.0mm
17/05:30am WSW 13-17 kts 18.4°c 1018.6 hPa n/a 0.0mm
17/05:00am WSW 15-21 kts 18.2°c 1018.6 hPa n/a 0.0mm
17/04:30am WSW 13-17 kts 18.2°c 1018.6 hPa n/a 0.0mm
17/04:00am WSW 14-19 kts 18.2°c 1018.6 hPa n/a 0.0mm
17/03:30am WSW 13-17 kts 18.3°c 1018.7 hPa n/a 0.0mm
17/03:00am WSW 14-17 kts 18.4°c 1018.6 hPa n/a 0.0mm
17/02:30am WSW 13-17 kts 18.4°c 1018.7 hPa n/a 0.0mm
17/02:00am WSW 13-17 kts 18.5°c 1019.1 hPa n/a 0.0mm
17/01:30am WSW 13-17 kts 18.4°c 1019.4 hPa n/a 0.0mm
17/01:00am WSW 13-16 kts 18.4°c 1019.6 hPa n/a 0.0mm
17/12:30am WSW 12-14 kts 18.4°c 1019.7 hPa n/a 0.0mm
17/12:00am WSW 12-15 kts 18.6°c 1020.0 hPa n/a 0.0mm
Time Wind Speed Temp Pressure Rel. Hum Rain
16/11:30pm SW 10-14 kts 19.6°c 1020.3 hPa n/a 0.0mm
16/11:00pm S 12-17 kts 20.7°c 1020.5 hPa n/a 0.0mm
16/10:30pm S 13-17 kts 21.6°c 1020.8 hPa n/a 0.0mm
16/10:00pm S 14-19 kts 21.5°c 1020.8 hPa n/a 0.0mm
16/09:30pm S 17-21 kts 21.5°c 1020.9 hPa n/a 0.0mm
16/09:00pm S 17-21 kts 21.5°c 1020.8 hPa n/a 0.0mm
16/08:30pm S 18-23 kts 21.6°c 1020.7 hPa n/a 0.0mm
16/08:00pm S 16-20 kts 21.8°c 1020.6 hPa n/a 0.0mm
16/07:30pm S 18-22 kts 21.8°c 1020.3 hPa n/a 0.0mm
16/07:00pm S 18-23 kts 21.8°c 1019.7 hPa n/a 0.0mm
16/06:30pm S 17-22 kts 21.7°c 1019.3 hPa n/a 0.0mm
16/06:00pm SSE 17-22 kts 21.9°c 1019.0 hPa n/a 0.0mm
16/05:30pm SSE 16-22 kts 21.9°c 1018.6 hPa n/a 0.0mm
16/05:00pm SSE 15-21 kts 22.2°c 1018.3 hPa n/a 0.0mm
16/04:30pm SSE 17-21 kts 22.2°c 1018.1 hPa n/a 0.0mm
16/04:00pm SSE 16-21 kts 22.7°c 1017.8 hPa n/a 0.0mm
16/03:30pm SSE 16-20 kts 22.7°c 1017.6 hPa n/a 0.0mm
16/03:00pm SSE 15-20 kts 23.2°c 1017.3 hPa n/a 0.0mm
16/02:30pm S 19-22 kts 23.3°c 1017.2 hPa n/a 0.0mm
16/02:00pm S 17-22 kts 23.4°c 1017.0 hPa n/a 0.0mm
16/01:30pm SSE 17-23 kts 23.6°c 1016.9 hPa n/a 0.0mm
16/01:00pm S 18-23 kts 23.2°c 1017.0 hPa n/a 0.0mm
16/12:30pm S 20-24 kts 23.6°c 1017.1 hPa n/a 0.0mm
16/12:00pm SSW 20-23 kts 23.4°c 1017.2 hPa n/a 0.0mm
16/11:30am SSW 21-24 kts 23.3°c 1017.4 hPa n/a 0.0mm
16/11:00am S 13-17 kts 23.7°c 1017.7 hPa n/a 0.0mm
16/10:30am SW 11-19 kts 23.5°c 1017.9 hPa n/a 0.0mm
16/10:00am SSW 7-9 kts 22.7°c 1017.9 hPa n/a 0.0mm
16/09:30am S 11-14 kts 21.7°c 1017.8 hPa n/a 0.0mm
16/09:00am S 15-20 kts 21.2°c 1017.7 hPa n/a 0.0mm
16/08:59am S 15-19 kts 21.3°c 1017.7 hPa n/a 0.0mm
16/08:30am ESE 5-7 kts 22.9°c 1017.2 hPa n/a 0.0mm
16/08:00am SSW 4-6 kts 21.0°c 1016.9 hPa n/a 0.0mm
16/07:30am CALM 0 kts 20.3°c 1016.6 hPa n/a 0.0mm
16/07:00am WSW 4-5 kts 19.4°c 1016.3 hPa n/a 0.0mm
16/06:30am NW 6 kts 19.1°c 1015.8 hPa n/a 0.0mm
16/06:00am NW 6-7 kts 19.0°c 1015.6 hPa n/a 0.0mm
16/05:30am NNW 7-9 kts 19.0°c 1015.3 hPa n/a 0.0mm
16/05:00am NNW 7-9 kts 18.9°c 1015.2 hPa n/a 0.0mm
16/04:30am NW 9 kts 18.7°c 1015.0 hPa n/a 0.0mm
16/04:00am NW 7 kts 19.1°c 1014.7 hPa n/a 0.0mm
16/03:30am NNW 8-10 kts 19.5°c 1014.6 hPa n/a 0.0mm
16/03:00am NNW 8-9 kts 19.8°c 1014.6 hPa n/a 0.0mm
16/02:30am NNW 6-8 kts 19.9°c 1014.7 hPa n/a 0.0mm
16/02:00am NNW 8-12 kts 20.7°c 1014.6 hPa n/a 0.0mm
16/01:30am NNW 7-11 kts 20.3°c 1014.8 hPa n/a 0.0mm
16/01:00am NNW 7-11 kts 21.0°c 1015.1 hPa n/a 0.0mm
16/12:30am NNW 8-11 kts 20.9°c 1015.3 hPa n/a 0.0mm
16/12:00am N 4-10 kts 20.8°c 1015.7 hPa n/a 0.0mm